CAPE
0 0 0 0 0 0 0 0 0 0 0 0 0 0 1 0 0 0 0 0 0 0 0 0 0 0 0 0 0 0 5 4 0 0 0 0 0 0 0 0 0 0 0 0 0 0 0 214 710 32 19 526 549 431
0 0 0 0 0 0 0 0 0 0 0 0 0 0 0 0 0 0 0 0 0 0 0 0 0 0 0 0 0 0 0 0 0 6 0 0 0 0 0 0 0 0 0 0 0 0 134 590 849 905 764 610 522 422
0 0 0 0 0 0 0 0 0 0 0 0 0 0 0 0 0 0 0 0 0 0 0 0 0 0 0 0 0 0 0 0 0 0 6 6 0 0 0 0 0 18 11 65 41 76 720 921 856 962 1098 1253 1060 407
0 0 0 0 0 0 0 0 0 0 0 0 0 0 0 0 0 0 0 0 0 0 0 0 0 0 0 0 0 0 0 0 0 0 0 0 0 0 0 0 0 4 43 314 273 270 535 749 662 446 465 1043 1394 441
0 0 0 0 0 0 0 0 0 0 0 0 0 0 0 0 0 0 0 0 0 0 0 0 0 0 0 0 0 0 0 0 0 0 0 0 0 0 0 7 118 93 89 147 224 486 492 593 498 539 1252 1061 1173 755
0 0 0 0 0 0 0 0 0 0 0 0 0 0 0 0 0 0 0 0 0 0 0 0 0 0 0 0 0 0 0 0 0 0 0 0 0 0 0 16 128 81 53 56 325 375 388 463 508 817 1214 792 582 631
6 0 0 0 0 0 0 0 0 0 0 0 0 0 0 0 0 0 0 0 0 0 0 0 0 0 0 0 0 0 0 0 0 0 0 0 0 0 0 2 81 105 38 140 301 297 292 258 785 1140 1185 889 638 475
0 7 0 0 0 0 0 0 0 0 0 0 0 0 0 0 0 0 0 0 0 0 0 0 0 0 0 0 0 0 0 0 0 0 0 0 0 0 0 0 0 6 37 221 246 68 14 167 764 925 837 644 358 253
7 13 0 0 0 0 0 0 0 0 0 0 0 0 0 0 0 0 0 0 0 0 0 0 0 19 0 0 0 0 0 0 0 0 0 0 0 0 0 0 0 0 6 23 102 10 15 46 124 314 384 244 98 16
1 0 0 0 0 0 1 0 0 0 0 0 0 0 0 0 0 1 0 0 0 0 0 0 0 18 8 0 1 0 0 0 0 0 0 0 0 0 0 0 0 0 0 0 0 15 2 0 0 11 13 0 0 0
0 0 0 0 0 0 0 0 0 0 0 0 0 0 0 0 0 0 0 0 0 0 0 0 0 0 0 49 18 2 12 5 4 0 0 0 0 0 0 0 0 0 0 0 0 0 1 3 3 0 0 0 0 0
4 2 0 0 0 0 0 0 0 0 0 0 0 0 0 0 0 0 0 0 0 0 0 0 0 0 0 15 92 30 10 3 8 0 14 2 0 0 0 0 0 0 0 0 0 0 0 0 1 0 0 0 0 0
1 6 1 2 0 0 0 0 0 0 0 0 0 0 0 0 0 0 0 0 0 0 0 0 0 0 22 97 38 33 8 5 0 2 12 1 10 3 0 0 0 0 0 0 0 0 0 0 0 0 0 0 0 0
6 7 15 10 0 0 0 0 0 0 0 0 0 0 0 0 0 0 0 0 0 0 1 28 72 65 124 70 40 2 0 1 0 0 43 1 5 0 0 0 0 0 0 0 0 0 0 0 0 0 0 0 0 0
25 16 23 24 6 0 0 0 0 0 0 0 0 0 0 0 0 0 0 0 0 0 5 26 21 13 45 30 30 19 24 1 9 62 1 3 3 1 0 0 0 0 0 0 0 0 0 0 0 0 0 0 0 0
31 29 32 19 1 0 0 0 0 0 0 0 0 0 0 0 0 0 0 0 0 0 0 0 0 0 0 5 7 8 23 26 46 55 54 19 1 0 0 0 0 0 0 0 0 0 0 0 1 0 0 0 0 1
37 4 41 1 0 0 0 0 0 0 0 0 0 0 0 0 0 0 0 0 0 3 20 7 1 11 1 9 8 5 33 45 19 26 0 0 0 0 0 0 1 3 3 2 1 1 2 5 10 10 0 2 11 1
19 22 4 0 0 0 0 0 0 0 0 0 0 0 0 0 0 1 0 0 0 0 0 1 0 0 1 13 11 17 23 0 0 0 0 0 0 0 0 2 2 0 3 8 14 14 20 21 19 9 7 0 0 0
7 0 0 0 0 0 0 0 0 0 0 0 0 0 0 0 0 0 0 0 0 0 0 0 0 0 0 3 3 4 0 0 0 0 0 0 0 0 1 0 1 5 25 21 31 28 16 7 2 4 2 0 0 0
1 0 0 0 0 4 0 0 0 0 0 0 0 1 0 0 0 0 0 0 0 0 0 0 0 0 0 0 0 0 0 0 0 0 0 0 2 2 0 4 1 2 6 4 2 3 2 1 1 1 0 0 0 1
5 3 0 0 0 0 0 0 0 0 0 0 0 0 0 0 0 0 0 0 0 0 0 0 0 0 0 0 0 0 0 0 0 0 0 0 1 1 1 1 1 1 1 1 2 1 1 1 1 1 0 1 1 1
3 0 0 0 0 0 4 0 0 0 0 0 1 0 6 3 0 0 0 0 0 0 0 0 0 0 0 0 0 0 0 0 0 0 0 0 0 2 2 0 1 1 1 1 1 0 1 1 0 2 2 0 0 0
0 0 0 0 0 0 0 0 10 0 13 0 0 0 0 0 0 0 0 0 0 0 0 0 0 0 0 0 1 0 0 0 0 0 3 1 2 1 1 1 0 0 1 0 0 3 0 0 0 0 0 0 0 0
0 0 1 3 0 0 0 0 0 0 0 0 0 0 0 0 0 0 0 0 0 0 0 0 0 2 2 1 0 1 1 1 1 1 1 0 0 0 0 0 0 0 0 0 0 0 0 0 0 0 0 0 0 0
0 0 0 0 0 0 0 0 0 0 0 0 0 0 0 0 0 0 0 0 0 0 0 0 0 0 0 0 0 0 0 0 2 4 0 0 0 0 0 0 0 0 0 0 0 0 0 2 6 12 14 8 0 0
0 0 0 0 0 0 0 0 0 0 0 0 0 0 0 0 0 0 0 0 0 0 2 7 0 2 3 3 7 2 2 0 0 0 0 0 2 11 11 18 23 15 4 16 34 42 36 25 26 35 32 23 3 0
0 0 1 0 0 0 0 0 0 0 0 0 0 0 0 0 0 0 0 0 0 0 4 2 1 0 0 7 5 8 10 2 10 6 3 2 1 3 14 35 47 48 21 27 37 43 37 34 20 21 13 19 22 2
1 6 0 0 0 0 0 1 0 0 0 0 2 0 0 0 0 0 0 0 0 0 6 0 0 5 6 13 14 19 22 10 3 2 11 10 16 17 17 32 15 0 0 1 6 23 30 22 12 9 7 15 8 1
0 0 0 0 1 0 0 0 0 1 0 0 0 0 0 0 0 1 4 4 0 5 0 5 1 1 8 10 13 24 34 33 0 16 25 26 20 21 0 0 0 0 0 0 0 0 0 0 3 10 7 7 3 2
0 0 0 2 1 0 0 0 0 1 3 0 1 1 2 1 0 0 0 0 0 0 1 11 7 18 40 50 54 48 29 13 15 0 0 0 0 0 0 0 0 0 0 0 0 0 0 0 0 3 1 1 0 1
0 0 1 1 1 0 0 0 7 8 7 3 5 1 2 3 0 0 0 0 1 0 7 17 22 29 35 34 34 40 49 4 2 0 0 0 0 0 0 0 0 0 0 0 0 0 0 0 0 1 5 5 1 0
1 1 0 6 5 3 4 3 6 8 2 0 0 0 0 2 0 0 0 0 2 8 11 11 23 21 2 1 0 0 0 0 0 0 0 0 0 0 0 0 0 0 0 0 0 0 0 0 0 0 0 0 0 0
3 1 0 2 2 0 0 0 0 2 1 4 2 0 0 0 2 0 0 0 3 11 9 1 0 0 0 0 0 0 0 0 0 0 0 0 0 0 0 0 0 0 0 0 0 0 0 0 0 0 0 0 0 0
CIN
0 0 0 0 0 0 0 0 0 0 0 0 0 0 0 0 0 0 0 0 0 0 0 0 0 0 0 0 0 0 -67 -94 0 0 0 0 0 0 0 0 0 0 0 0 0 0 0 -350 -151 -124 -194 -223 -231 -241
0 0 0 0 0 0 0 0 0 0 0 0 0 0 0 0 0 0 0 0 0 0 0 0 0 0 0 0 0 0 0 -13 0 -166 0 0 0 0 0 0 0 0 0 0 0 0 -293 -309 -243 -279 -267 -203 -219 -223
0 0 0 0 0 0 0 0 0 0 0 0 0 0 0 0 0 0 0 0 0 0 0 0 0 0 0 0 0 0 0 0 0 0 -220 -183 0 0 0 0 0 -222 -188 -123 -170 -256 -155 -195 -249 -203 -244 -160 -168 -238
0 0 0 0 0 0 0 0 0 0 0 0 0 0 0 0 0 0 0 0 0 0 0 0 0 0 0 0 0 0 0 0 0 0 0 0 0 0 0 0 0 -84 -200 -82 -77 -139 -154 -168 -205 -248 -236 -170 -134 -234
0 0 0 0 0 0 0 0 0 0 0 0 0 0 0 0 0 0 0 0 0 0 0 0 0 0 0 0 0 0 0 0 0 0 0 0 0 0 0 -54 -46 -103 -82 -46 -22 -101 -124 -137 -194 -185 -85 -95 -103 -156
0 0 0 0 0 0 0 0 0 0 0 0 0 0 0 0 0 0 0 0 0 0 0 0 0 0 0 0 0 0 0 0 0 0 0 0 0 0 0 -16 -30 -73 -105 -115 -68 -150 -148 -146 -153 -119 -58 -77 -110 -129
-2 0 0 0 0 0 0 0 0 0 0 0 0 0 0 0 0 0 0 0 0 0 0 0 0 0 0 0 0 0 0 0 0 0 0 0 0 0 0 -5 -23 -44 -64 -81 -99 -101 -68 -98 -48 -57 -48 -76 -105 -115
0 -7 0 0 0 0 0 0 0 0 0 0 0 0 0 0 0 0 0 0 0 0 0 0 0 0 0 0 0 0 0 0 0 0 0 0 0 0 0 0 0 -43 -69 -50 -61 -120 -124 -79 -57 -50 -58 -61 -80 -109
-5 -2 -1 0 0 0 0 0 0 0 0 0 0 0 0 0 0 0 0 0 0 0 0 0 0 -19 0 0 0 0 0 0 0 0 0 0 0 0 0 0 0 0 -10 -5 -63 -20 -111 -94 -72 -61 -50 -54 -54 -53
-3 0 -2 0 0 0 -4 0 0 0 0 0 0 0 0 0 0 0 0 0 0 0 0 0 0 -52 -13 0 -1 0 0 0 0 0 0 0 0 0 0 0 0 0 0 0 -2 -28 -19 -2 0 -100 -108 -10 0 0
0 -2 0 0 0 -1 0 0 0 0 0 0 0 0 0 0 0 0 0 0 0 0 0 0 0 0 0 -32 -25 -25 -18 -26 -3 0 0 0 0 0 0 0 0 0 0 0 0 0 -51 -151 -119 -22 0 0 0 0
-10 -8 0 0 0 0 0 0 0 0 0 0 0 0 0 0 0 0 0 0 0 0 0 0 0 0 0 -112 -34 -61 -15 -17 -3 0 -17 -2 0 0 0 0 0 0 0 0 0 0 0 0 -83 0 0 0 0 0
-9 -11 -3 -10 0 0 0 0 0 0 0 0 0 0 0 0 0 0 0 0 0 0 0 0 0 0 -96 -84 -43 -49 -16 -11 0 -6 -8 0 -59 -54 0 0 0 0 0 0 0 0 0 0 0 0 0 0 0 0
-4 -4 -2 0 0 0 0 0 0 0 0 0 0 0 0 0 0 0 0 0 0 0 -15 -93 -51 -63 -76 -43 -50 -8 -6 -25 0 0 -13 -7 -35 0 0 0 0 0 0 0 0 0 0 0 0 0 0 0 0 0
-14 0 -1 0 -2 0 0 0 0 0 0 0 0 0 0 0 0 0 0 0 0 0 -44 -22 -72 -89 -34 -32 -59 -45 -24 -3 -6 -10 -3 -12 -19 -32 0 0 0 0 0 0 0 0 0 0 0 0 0 0 0 0
-4 -28 -2 -1 -1 0 0 0 0 0 0 0 0 0 0 0 0 0 0 0 0 0 0 0 -4 0 -4 -28 -12 -21 -14 -14 -23 -26 -16 -23 -10 0 0 0 0 0 0 0 0 0 0 0 0 0 0 0 0 -3
-4 -5 0 -2 -1 0 0 0 0 0 0 0 0 0 0 0 0 0 0 0 0 -85 -22 -28 -5 -13 -1 -14 -17 -43 -13 -34 -50 -33 -2 0 0 0 0 0 0 0 0 0 0 -1 0 -24 -9 -7 -16 -16 -8 -1
0 -1 -9 0 0 0 0 0 0 0 0 0 0 0 0 0 0 -6 0 0 0 0 -2 -7 0 0 -3 -9 -12 -38 -46 0 0 0 0 0 0 0 0 0 -8 -9 -5 -22 -16 -21 -19 -7 -1 -1 -3 0 0 0
-3 0 0 0 0 0 0 0 0 0 0 0 0 0 0 0 0 0 0 0 0 0 0 0 0 0 0 -36 -38 -47 0 0 0 0 0 0 0 0 -5 0 -17 -16 -6 -2 -3 -8 -10 -15 -17 -8 -3 -1 -2 0
-9 0 0 0 0 -44 0 0 0 0 0 0 0 -24 -11 0 0 0 0 0 0 0 0 0 0 0 0 0 0 0 0 0 0 0 0 0 0 0 -10 -24 -12 -6 -17 -6 -9 -35 -3 0 0 0 0 0 0 0
0 0 0 0 0 0 -1 0 0 0 0 0 0 0 -1 0 0 0 0 0 0 0 0 0 0 0 0 0 0 0 0 0 0 0 0 0 0 -26 -10 -5 0 -56 -1 0 -41 0 0 0 0 0 0 0 0 0
0 0 0 0 0 -20 -75 -18 0 0 0 0 -8 0 -24 -17 0 0 0 0 0 0 0 0 0 0 0 0 0 0 0 0 0 0 0 0 0 -8 -2 0 -4 -4 0 0 0 -29 -46 0 -14 -59 -43 0 0 0
0 0 0 0 -20 0 -1 0 -24 0 -9 0 0 0 0 0 0 0 0 0 0 0 0 0 0 0 0 0 0 0 0 0 0 -1 -8 -2 0 0 0 0 0 0 -15 0 -3 -24 0 0 0 0 0 0 0 0
0 0 -47 -56 0 0 0 0 0 0 0 0 0 0 0 0 0 0 0 0 0 0 0 0 0 -28 -18 0 0 0 0 0 0 -1 -18 0 0 0 0 0 0 0 0 0 0 0 0 0 0 0 0 0 0 0
0 0 0 0 0 -1 0 0 0 0 0 0 0 0 0 0 0 0 0 0 0 0 0 -4 0 -2 0 -1 0 -1 0 0 -10 -31 0 0 0 0 0 0 0 0 0 -1 -1 -1 -1 -26 -30 -23 -21 -22 0 0
0 0 0 -6 -4 0 0 0 0 0 0 0 0 0 0 0 0 0 0 0 0 0 -47 -12 0 -7 -9 -13 -5 -3 -21 -8 0 -26 0 0 -36 -9 -11 -10 -10 -23 -55 -35 -22 -12 -8 -8 -19 -30 -20 -23 -8 0
0 0 -2 0 0 0 0 0 0 0 0 0 0 0 0 0 0 0 0 0 0 -3 -34 -16 -18 -12 -1 -9 -25 -41 -62 -54 -48 -48 -39 -37 -36 -50 -28 -12 -9 -18 -48 -60 -55 -37 -24 -30 -23 -18 -15 -18 -15 -5
-11 -29 -1 0 0 0 0 -11 0 0 0 0 -12 0 0 0 0 0 0 0 0 0 -11 -17 -13 -25 -35 -37 -45 -46 -58 -80 -105 -95 -69 -57 -56 -54 -57 -55 -72 0 0 -12 -74 -54 -44 -49 -35 -21 -21 -9 -16 -10
0 0 0 0 -2 0 0 0 0 0 -1 0 0 -1 -2 0 0 -17 -8 -8 -9 0 -6 -20 -11 -7 -57 -63 -66 -63 -52 -41 0 -8 -7 -4 -8 -16 0 0 0 0 0 0 0 0 0 0 -28 -15 -18 -10 -13 -25
0 0 0 -2 -1 0 0 0 0 -5 -11 0 -3 -4 -6 -11 0 0 0 0 0 -13 -15 -28 -38 -36 -27 -23 -23 -29 -54 -62 -51 0 0 0 0 0 0 0 0 0 0 0 0 0 0 0 -1 -26 -20 -7 -8 -28
0 0 0 0 0 0 0 0 -7 -3 -11 -9 0 0 -1 -3 0 0 0 0 -31 -1 -23 -31 -40 -52 -43 -36 -31 -20 -11 -32 -22 0 0 0 0 0 0 0 0 0 0 0 0 0 0 0 0 -3 -12 -16 -7 0
0 0 0 -2 -1 -2 -2 -3 -1 -1 -4 -1 0 0 -1 -4 -3 0 0 0 -60 -59 -50 -59 -36 -42 -69 -59 -7 0 -5 -2 0 0 0 0 0 0 0 0 0 0 0 0 0 0 0 0 0 -1 0 0 0 0
-3 -6 -7 -5 -4 -2 0 0 -1 -2 -1 0 -1 0 0 -2 -8 0 0 0 -38 -41 -44 -28 0 0 0 0 0 0 0 0 0 0 0 0 0 0 0 0 0 0 0 0 0 0 0 0 0 0 0 0 0 0
Wind_Speed
14 10 15 11 10 13 16 18 19 19 20 20 21 21 22 22 22 19 15 19 17 18 21 19 19 19 19 19 22 23 21 18 19 21 22 20 21 22 23 21 21 23 23 23 21 23 24 17 17 18 20 21 21 17
10 16 15 9 9 10 13 16 18 19 19 20 21 21 22 22 22 20 16 18 19 15 20 20 25 27 24 22 20 20 21 18 17 19 18 18 18 20 23 27 20 24 22 22 22 22 19 19 21 20 19 21 18 15
14 16 13 7 9 8 10 14 17 19 19 20 20 21 22 22 22 21 19 20 17 18 20 20 18 18 18 17 15 18 19 21 17 16 18 18 17 19 22 23 22 21 20 23 23 22 20 19 19 17 17 21 19 14
20 14 14 9 4 8 7 10 15 19 20 20 20 21 22 22 22 22 18 17 17 16 18 17 18 16 17 16 15 16 18 17 19 18 17 18 18 18 20 20 22 21 21 22 24 23 20 18 17 17 19 19 15 12
12 13 15 12 10 7 10 6 9 16 19 20 20 21 21 22 22 20 14 15 16 16 17 18 21 16 17 14 14 16 17 18 18 19 20 21 19 18 18 19 21 19 20 22 24 20 19 17 16 17 17 15 14 10
12 9 11 13 12 13 10 5 5 10 18 20 21 21 21 21 21 14 14 14 15 17 16 17 17 18 18 15 16 18 18 18 18 20 20 20 19 20 21 21 19 17 17 19 21 16 17 17 17 14 12 12 12 12
13 13 11 13 14 15 12 9 6 7 12 20 21 21 22 20 18 13 14 15 14 18 16 18 18 16 18 17 18 19 19 20 20 21 23 22 22 22 21 21 15 15 16 15 12 12 14 15 14 12 13 13 12 13
13 13 13 13 13 14 11 9 9 8 8 18 22 22 23 20 14 14 15 16 10 16 14 16 18 17 16 18 19 18 18 19 20 21 21 24 22 23 26 23 22 20 18 15 13 15 17 13 11 11 12 13 14 16
16 15 15 15 13 14 10 7 9 11 12 12 21 21 14 13 12 13 13 11 14 15 16 14 17 17 16 16 17 17 17 19 18 20 20 19 22 25 24 25 25 23 22 23 20 19 17 16 15 15 16 17 19 21
15 17 17 15 14 12 8 8 9 10 12 13 15 14 14 13 15 11 15 15 15 14 13 13 14 17 16 15 17 18 17 18 19 18 17 20 20 20 22 23 25 25 25 22 19 19 17 17 17 18 19 21 23 24
18 15 14 14 13 10 8 8 7 9 10 10 14 14 14 15 11 12 13 14 15 15 11 12 13 16 14 16 16 17 17 17 20 18 19 19 20 18 18 17 17 16 15 15 16 16 17 18 18 20 21 22 23 24
18 16 13 13 11 10 9 7 6 8 9 11 13 12 13 11 11 11 13 15 15 15 12 13 13 11 15 16 16 15 18 17 19 16 18 20 17 14 14 14 14 14 13 13 15 16 18 19 20 22 24 25 26 26
12 12 18 12 12 10 8 6 5 6 8 10 13 13 13 12 11 11 11 13 14 13 12 12 11 13 15 15 15 16 17 18 16 18 18 17 13 13 14 15 15 16 16 17 18 19 21 23 25 26 28 29 30 31
15 15 13 11 15 15 13 10 9 9 10 13 15 14 13 11 14 14 15 14 14 13 15 14 13 17 17 19 16 17 16 17 17 18 17 15 12 13 15 17 18 20 21 22 24 25 26 27 28 29 30 31 33 34
15 21 21 20 16 15 13 14 12 11 14 13 12 15 13 15 18 19 19 17 14 15 16 15 16 18 19 18 18 17 17 18 18 16 16 12 11 14 17 20 22 24 26 27 28 29 30 30 30 30 29 30 31 31
24 22 24 19 18 15 13 11 14 14 14 15 15 14 16 17 17 17 17 18 15 17 17 18 18 17 20 19 18 19 18 18 15 12 10 11 13 17 21 23 26 28 29 30 29 28 28 28 28 29 31 31 32 31
25 23 19 17 14 12 15 16 17 17 17 18 16 18 20 20 19 18 18 15 18 19 20 17 18 19 15 19 19 18 19 14 11 10 12 16 20 23 25 27 29 30 30 28 28 27 27 27 26 26 28 28 26 27
22 17 15 13 12 13 16 17 18 19 21 19 18 17 17 19 18 17 17 18 19 19 18 18 15 16 17 18 17 15 13 12 13 15 20 21 23 25 26 28 28 27 27 26 24 22 20 21 20 21 21 20 21 22
13 12 12 13 16 15 17 18 17 20 20 20 20 19 19 18 17 16 16 17 17 18 16 17 17 18 19 18 17 13 13 16 18 21 23 24 24 25 25 25 23 22 21 19 18 17 17 19 20 20 20 20 21 23
15 17 18 17 16 15 16 17 18 18 19 19 18 18 17 16 15 15 16 16 17 18 17 17 18 18 17 16 15 16 17 19 22 25 25 24 23 23 20 21 21 19 17 16 17 18 18 17 19 19 19 20 20 22
21 21 18 17 15 16 17 18 19 19 18 17 16 16 15 15 15 16 17 18 18 18 19 19 19 18 18 19 19 21 22 23 24 24 24 24 22 20 18 16 15 15 16 17 16 16 17 18 19 19 20 20 20 21
22 21 18 16 16 18 18 19 18 17 17 16 15 15 15 17 18 18 20 21 20 19 20 20 20 21 22 24 24 24 25 25 24 24 21 20 18 16 14 15 15 13 15 17 18 18 18 18 19 19 20 20 21 22
20 17 16 16 18 19 18 18 18 17 18 17 16 16 17 19 18 18 20 20 21 21 21 22 22 22 23 24 24 24 23 22 20 19 18 17 13 13 13 11 15 17 16 6 20 22 23 24 25 25 25 24 25 25
18 19 19 18 18 19 19 19 18 18 17 18 18 19 19 19 19 19 21 21 21 21 21 21 21 21 19 19 19 18 19 19 19 17 17 19 21 20 21 22 23 24 23 24 23 23 23 23 22 23 24 24 24 24
17 17 18 18 19 20 20 20 19 19 20 20 20 20 19 18 19 20 20 20 19 20 20 20 19 19 18 17 17 17 13 13 13 9 18 23 28 28 27 25 23 23 22 21 21 20 21 21 21 21 22 23 23 24
17 17 18 18 19 20 20 21 21 21 20 20 20 19 18 19 19 20 19 18 19 19 19 19 20 19 18 18 17 17 13 12 5 9 15 23 20 20 21 20 20 19 18 17 17 17 16 16 16 17 16 17 19 20
18 18 18 17 17 19 19 19 19 19 20 21 19 19 19 19 19 19 18 19 19 18 19 19 19 21 21 23 18 18 17 16 12 5 3 19 19 19 18 18 17 17 16 16 15 15 15 15 16 17 18 18 17 17
17 18 20 19 19 19 18 19 19 20 20 19 19 20 18 19 18 17 18 18 20 20 20 20 22 24 22 18 15 14 15 17 18 19 17 17 18 16 15 15 15 16 17 16 15 14 13 13 15 17 18 19 18 16
18 18 19 19 19 19 19 19 18 18 19 20 18 18 17 17 17 17 18 18 21 24 24 26 23 21 18 18 18 18 18 18 18 19 19 18 16 15 16 16 17 17 17 18 19 17 15 14 14 16 16 16 15 15
18 20 19 19 18 19 18 20 18 18 18 20 19 17 16 16 16 18 19 21 25 30 27 22 20 19 17 16 16 15 16 17 17 13 10 16 14 14 16 16 16 16 16 16 16 17 17 16 16 16 14 13 15 16
19 20 18 18 17 17 18 17 17 17 17 17 19 18 17 18 17 18 21 24 25 21 20 19 17 16 15 15 15 14 14 13 17 17 12 12 14 13 14 13 13 13 13 12 13 13 12 12 11 13 15 16 19 18
20 19 17 18 16 15 16 16 17 17 18 18 15 16 13 7 6 25 23 23 20 19 20 18 17 16 16 17 17 17 14 16 17 10 12 11 10 11 12 12 12 11 11 10 11 13 14 13 15 16 17 18 19 19
21 22 21 19 18 17 17 18 16 16 12 8 12 17 16 18 19 22 20 24 23 21 20 18 17 17 16 13 14 13 14 16 17 17 15 12 10 13 14 15 16 16 16 16 17 17 17 17 17 18 18 19 20 20
Wind_Direction
256 263 270 285 306 313 307 298 301 305 312 317 319 320 316 319 317 337 2 340 334 306 287 286 282 278 284 282 265 263 263 272 268 257 258 264 265 259 260 267 266 264 266 268 273 273 273 289 287 291 300 308 319 326
242 257 265 281 301 316 316 307 296 299 306 314 317 315 316 318 317 324 355 343 329 321 292 290 278 269 274 279 283 273 258 270 277 267 268 270 272 265 261 258 274 265 273 272 276 279 292 290 289 297 305 309 323 329
245 252 262 276 291 317 329 313 298 295 303 310 316 314 315 315 317 324 328 324 340 321 300 287 285 288 287 282 286 280 273 264 278 281 273 273 275 272 263 264 270 275 281 278 281 286 292 295 299 306 312 304 317 323
242 247 258 269 297 312 346 326 306 297 298 306 313 312 313 314 313 313 325 330 336 331 305 297 293 288 288 287 285 287 289 288 272 278 279 275 275 278 275 277 275 279 282 281 283 289 292 295 299 304 313 315 322 331
221 242 254 267 286 311 318 1 335 309 297 301 306 308 311 311 311 318 338 335 336 330 313 295 282 287 290 290 290 289 289 286 279 270 271 272 280 283 286 285 282 285 284 282 283 292 293 292 299 302 304 312 321 328
221 227 252 267 280 289 309 357 34 340 300 297 300 302 305 310 313 331 339 333 339 339 322 299 299 282 284 290 292 291 289 287 284 277 275 277 282 283 282 279 286 290 293 292 291 295 294 295 295 301 314 325 335 342
226 244 255 269 276 283 296 314 355 12 332 295 295 294 298 307 316 333 330 326 337 324 329 301 293 295 282 283 291 291 288 283 283 279 274 276 277 282 280 279 286 290 296 302 310 312 300 300 299 306 310 320 330 338
238 248 257 267 275 280 291 302 316 346 6 303 290 291 291 301 320 316 316 312 354 325 338 313 295 291 291 279 280 290 289 285 282 279 281 273 277 278 274 277 278 281 287 294 301 307 301 309 316 317 320 320 319 320
247 251 259 265 269 274 283 297 306 318 330 343 290 291 309 316 325 317 321 347 329 322 324 327 297 286 293 287 285 289 288 282 287 278 280 281 274 271 277 277 277 277 278 280 284 289 294 296 301 305 304 305 306 307
255 255 257 258 263 266 272 287 304 317 322 332 302 293 296 309 302 321 307 307 310 323 337 330 310 288 293 288 282 282 287 282 277 280 285 280 281 285 286 284 281 279 277 281 280 280 287 292 296 299 303 306 305 304
248 248 247 250 255 255 266 283 304 315 332 313 283 284 295 295 313 313 312 305 308 319 348 326 307 289 297 286 284 283 282 284 277 279 279 279 281 288 295 299 298 301 298 291 290 291 294 293 295 298 302 306 309 309
241 240 243 246 246 249 259 273 295 314 304 286 285 289 293 306 313 311 305 298 306 315 345 325 305 299 291 283 284 289 281 283 277 288 282 279 284 291 299 306 309 314 312 311 305 300 300 301 300 301 302 304 306 308
223 229 239 236 237 239 250 256 285 304 292 282 276 276 285 298 303 302 303 298 304 331 338 332 320 280 274 276 286 284 283 281 289 281 281 287 290 289 294 301 307 313 311 310 308 307 304 301 302 302 300 301 302 303
220 225 226 222 227 230 235 240 256 266 272 269 260 264 278 298 285 286 280 289 311 327 321 302 283 260 260 252 268 276 282 281 282 280 283 292 288 291 294 299 301 301 304 305 304 304 303 302 302 303 303 304 303 302
214 218 216 217 217 222 229 232 241 255 259 263 276 264 278 275 266 266 268 277 306 311 269 260 253 253 250 253 259 276 272 272 276 286 291 300 297 295 295 297 300 301 302 301 303 303 303 304 305 306 309 310 309 307
209 206 217 206 211 214 218 228 237 249 258 258 264 267 261 259 263 264 267 267 277 251 243 234 241 250 240 244 259 257 260 263 285 298 306 306 297 291 291 293 296 296 298 300 304 307 310 311 311 310 310 310 308 308
201 211 197 190 198 206 216 228 230 241 248 248 254 246 245 251 253 261 260 270 247 242 230 249 249 253 279 256 263 265 259 286 298 329 311 298 286 283 287 288 291 294 295 300 303 309 312 315 319 321 320 319 319 317
186 156 167 176 193 212 226 231 233 235 233 242 240 241 249 248 254 255 253 245 236 239 246 255 276 270 268 263 269 290 298 313 318 315 298 292 285 290 300 297 301 305 305 309 313 322 331 334 338 338 341 347 338 329
156 161 165 178 204 217 223 226 236 228 231 228 233 241 243 245 249 253 250 241 241 243 252 262 269 265 262 271 287 308 309 299 300 296 282 285 301 306 310 317 317 320 323 327 336 342 346 343 342 344 342 334 328 330
160 171 181 197 210 217 221 221 226 223 220 225 234 237 239 246 245 248 246 253 257 257 264 270 271 270 277 287 296 300 298 295 293 279 285 301 313 319 324 327 325 324 337 345 345 342 346 355 353 348 342 339 342 343
169 180 190 200 210 215 213 212 213 214 218 224 232 233 244 243 250 247 252 259 259 262 261 264 262 271 280 286 289 285 286 290 284 283 284 288 269 263 243 238 246 249 298 338 359 355 12 13 22 8 0 356 360 5
171 178 192 208 205 204 206 208 211 218 219 226 230 236 244 243 239 249 256 249 253 256 252 256 265 274 273 267 271 278 281 280 274 263 239 231 209 162 218 247 254 354 16 27 23 25 27 47 50 47 40 30 22 17
174 187 195 199 192 196 202 209 211 219 217 223 232 235 231 229 240 250 244 246 242 248 253 259 265 268 260 269 280 269 249 241 221 214 209 181 89 360 301 294 40 87 38 26 100 65 58 64 65 66 65 59 53 47
173 176 178 185 192 194 203 207 211 216 221 223 224 216 224 229 245 239 233 239 245 250 252 247 257 269 270 247 235 229 228 216 209 210 184 154 144 157 159 154 140 105 71 80 74 66 61 59 58 49 42 40 39 39
172 175 180 180 186 188 192 198 207 209 207 213 216 218 218 232 229 230 232 237 242 237 245 242 230 220 215 219 221 216 232 228 226 240 178 156 100 95 98 92 83 81 84 69 62 57 59 62 62 55 48 43 40 37
167 178 179 182 183 184 189 187 193 199 206 211 216 222 223 225 226 221 229 230 226 228 221 208 200 203 206 208 205 202 218 221 242 54 66 143 168 71 75 73 76 87 99 90 79 79 86 87 85 73 74 65 52 43
166 172 181 192 192 186 189 195 197 199 199 199 208 211 218 215 212 216 223 221 223 215 207 203 208 191 184 173 185 184 187 194 217 276 284 183 167 97 68 80 96 81 103 111 110 110 110 96 75 58 60 52 56 64
175 176 175 180 186 189 189 190 191 193 197 202 206 198 203 204 213 223 226 232 216 196 195 192 181 172 176 190 203 208 211 205 198 197 210 208 160 143 147 153 141 106 92 97 108 112 114 99 74 51 48 47 62 73
171 174 179 179 184 187 189 187 191 194 197 192 195 201 208 213 220 220 231 217 193 182 177 168 173 182 190 193 187 188 193 195 198 178 167 170 128 102 107 94 83 71 64 63 57 69 80 82 72 48 48 56 61 52
171 168 175 177 180 181 187 180 191 195 199 193 200 210 211 205 195 180 176 175 171 162 166 176 179 181 187 196 200 202 192 178 162 265 231 105 89 61 83 86 77 64 68 76 66 61 64 65 57 48 48 45 28 21
171 168 175 176 180 184 188 193 195 194 196 194 189 192 192 185 184 185 175 174 175 186 190 194 201 207 216 227 233 238 263 270 189 164 164 353 58 60 68 70 70 65 64 68 58 55 56 54 51 38 30 22 9 9
153 165 170 166 166 169 169 169 165 164 164 166 175 176 180 182 194 169 182 184 198 203 203 210 217 222 223 229 233 208 149 261 299 72 129 112 62 36 25 28 31 34 33 36 35 30 26 28 22 19 14 12 10 9
138 140 146 152 155 156 157 159 163 166 176 192 191 185 189 183 175 173 204 177 177 193 214 226 234 236 241 293 27 31 19 11 5 8 28 37 18 4 3 4 5 7 9 9 8 10 15 15 13 12 11 8 7 6